AEE2CH LGSR-LGAV

Flight info

Callsign AEE2CH
Flight time N/A
Altitude 16000
Route NETIS M601 MIL L617 SOREV
Aircraft A320/M-SDE3FGHIRWY/LB1

Departure

Time 2026-05-05 19:02
Airport Santorini International Airport (LGSR)

Arrival

Time N/A
Airport Athens Eleftherios Venizelos International Airport (LGAV)
Time Latitude Longitude Altitude Speed Heading
2026-05-05 18:33 36.40341 25.47377 90 ft 0 kts 249°
2026-05-05 18:54 36.40342 25.47377 90 ft 0 kts 249°
2026-05-05 18:54 36.40349 25.47403 90 ft 4 kts 249°
2026-05-05 18:55 36.40356 25.47427 92 ft 4 kts 283°
2026-05-05 18:55 36.40341 25.47447 90 ft 4 kts 336°
2026-05-05 18:55 36.40339 25.47448 90 ft 4 kts 339°
2026-05-05 18:55 36.40353 25.47442 92 ft 0 kts 339°
2026-05-05 18:57 36.40359 25.47439 92 ft 2 kts 339°
2026-05-05 18:58 36.40394 25.47432 92 ft 8 kts 10°
2026-05-05 18:58 36.40421 25.47470 92 ft 6 kts 60°
2026-05-05 18:58 36.40494 25.47475 90 ft 13 kts 340°
2026-05-05 18:58 36.40574 25.47437 91 ft 15 kts 339°
2026-05-05 18:59 36.40615 25.47417 92 ft 15 kts 339°
2026-05-05 18:59 36.40724 25.47366 91 ft 18 kts 339°
2026-05-05 18:59 36.40784 25.47338 91 ft 6 kts 343°
2026-05-05 18:59 36.40825 25.47363 92 ft 3 kts 54°
2026-05-05 19:00 36.40827 25.47369 91 ft 0 kts 65°
2026-05-05 19:00 36.40830 25.47378 93 ft 4 kts 65°
2026-05-05 19:01 36.40843 25.47416 94 ft 5 kts 68°
2026-05-05 19:01 36.40851 25.47465 92 ft 4 kts 104°
2026-05-05 19:01 36.40829 25.47484 93 ft 4 kts 155°
2026-05-05 19:01 36.40823 25.47487 93 ft 0 kts 157°
2026-05-05 19:02 36.40770 25.47514 92 ft 37 kts 159°
2026-05-05 19:02 36.40229 25.47770 92 ft 126 kts 159°
2026-05-05 19:02 36.39218 25.48242 240 ft 174 kts 161°
2026-05-05 19:02 36.38454 25.48634 758 ft 175 kts 157°
2026-05-05 19:03 36.37023 25.49535 1866 ft 174 kts 162°
2026-05-05 19:03 36.35799 25.49698 2347 ft 186 kts 200°
2026-05-05 19:03 36.34683 25.48836 2779 ft 199 kts 237°
2026-05-05 19:03 36.34259 25.47182 3247 ft 211 kts 276°
2026-05-05 19:04 36.34549 25.45985 3517 ft 223 kts 303°
2026-05-05 19:04 36.35436 25.44617 4190 ft 229 kts 313°
2026-05-05 19:05 36.36026 25.43809 4667 ft 232 kts 314°
2026-05-05 19:05 36.37130 25.42340 5793 ft 235 kts 316°